Location: Grasslands National Park East Block
(49.0708°N, 106.5295°W)
Time: 17:47:00
(UTC-06:00)

Vanguard 1 - Pass Details

Date: 27 September 2019
Orbit: 653 x 3830 km, 34.3° (Epoch: 14 October)

Event Time Altitude Azimuth Distance (km) Brightness Sun altitude
Rises 22:39:02 0° 188° (S) 6,524 - -34.4°
Reaches altitude 10° 22:44:39 10° 174° (S) 5,984 - -35.0°
Maximum altitude 22:57:47 22° 132° (SE) 5,733 - -36.4°
Exits shadow 23:11:58 11° 94° (E) 6,838 14.0 -37.8°
Drops below altitude 10° 23:12:40 10° 92° (E) 6,916 14.0 -37.8°
Sets 23:19:48 0° 80° (E) 7,786 14.5 -38.5°
